{"data":{"norad_id":47627,"intl_designator":"2021-012H","name":"STARLINK-1972","alt_names":[],"object_type":"PAYLOAD","status":"ACTIVE","operator":null,"country":"US","launch_date":"2021-02-16","launch_site_code":"AFETR","launch_vehicle":null,"mission":null,"orbit_class":"UNKNOWN","rcs_meters":null,"size_class":null,"mass_kg":null,"dimensions":null,"purposes":["comms"],"wikipedia_slug":null,"has_3d_model":false,"image_url":null,"decayed_at":null,"tle_current":{"epoch":"2026-09-20T04:00:03.000096Z","epoch_age_seconds":55937,"freshness":"FRESH","line1":"1 47627U 21012H   26263.16670139  .00225163  29683-4  72610-3 0  9994","line2":"2 47627  53.0367  88.5099 0002651 198.6071 182.0400 15.90500201  6045","mean_motion":15.90500201,"eccentricity":0.0002651,"inclination_deg":53.0367,"raan_deg":88.5099,"arg_perigee_deg":198.6071,"mean_anomaly_deg":182.04,"bstar":0.0007261,"rev_number":604,"period_min":90.537555361177,"perigee_km":299.11154870192,"apogee_km":302.65276465879,"semimajor_km":6679.0191566804,"source":"CELESTRAK","updated_at":"2026-09-20T09:00:38.597354Z"}}}